Regional Weather Roundup
Issued by NWS

Home | Current Version | Previous Version | Graphics & Text | Print | Product List | Glossary On
Versions: 1 2 3 4 5 6 7 8 9 10 11 12 13 14 15 16 17 18 19 20 21 22 23 24 25 26 27
000
ASUS45 KPSR 081910
RWRAZ

ARIZONA HOURLY REGIONAL WEATHER ROUNDUP
NATIONAL WEATHER SERVICE PHOENIX AZ
1200 PM MST THU DEC 08 2016

NOTE: FAIR INDICATES FEW OR NO CLOUDS BELOW 12,000 FEET WITH NO
SIGNIFICANT WEATHER AND/OR OBSTRUCTIONS TO VISIBILITY.

AZZ001>003-036-082000-
NORTHWEST ARIZONA

CITY           SKY/WX    TMP DP  RH WIND       PRES   REMARKS
BULLHEAD CITY  SUNNY     55  10  16 N14       30.28F
KINGMAN        SUNNY     50  10  20 CALM      30.25F
$$

AZZ004>008-015-016-018-082000-
NORTH CENTRAL ARIZONA

CITY           SKY/WX    TMP DP  RH WIND       PRES   REMARKS
GRAND CANYON   SUNNY     42  22  44 W10       30.27F
WILLIAMS       SUNNY     46  18  31 VRB5      30.26F
PRESCOTT       SUNNY     48  31  51 VRB3      30.27F
FLAGSTAFF      CLOUDY    43  22  43 SW12      30.27F
PAYSON         SUNNY     50  30  46 CALM      30.30F
PAGE           SUNNY     39   4  23 CALM      30.31F
$$

AZZ009>014-017-082000-
NORTHEAST ARIZONA

CITY           SKY/WX    TMP DP  RH WIND       PRES   REMARKS
WINSLOW        SUNNY     40  13  33 VRB3      30.30F
SAINT JOHNS    SUNNY     42  26  53 VRB3      30.27F
WINDOW ROCK    SUNNY     41  18  39 S5        30.27F
SHOW LOW       SUNNY     46  27  46 S14       30.28F
$$

AZZ023-082000-
GREATER PHOENIX AREA

CITY           SKY/WX    TMP DP  RH WIND       PRES   REMARKS
PHOENIX        SUNNY     61  39  44 CALM      30.22F
BUCKEYE        SUNNY     59  36  41 CALM      30.25F
GLENDALE       SUNNY     61  39  44 CALM      30.25F
LUKE AFB       SUNNY     61  38  43 CALM      30.22F
DEER VALLEY    SUNNY     61  41  47 VRB5      30.22F
SCOTTSDALE     SUNNY     61  40  45 CALM      30.24F
MESA-GATEWAY   SUNNY     57  41  54 W5        30.24F
CHANDLER       SUNNY     61  43  51 CALM      30.24F
$$

AZZ027-028-082000-
SOUTHWEST MARICOPA COUNTY AND PINAL COUNTY

CITY           SKY/WX    TMP DP  RH WIND       PRES   REMARKS
CASA GRANDE    NOT AVBL
GILA BEND      FAIR     N/A N/A N/A N7          N/A
$$

AZZ503-504-507>509-082000-
SOUTHEAST ARIZONA

CITY           SKY/WX    TMP DP  RH WIND       PRES   REMARKS
TUCSON         SUNNY     61  39  44 CALM      30.23F
DAVIS-MONTHAN  SUNNY     62  39  43 NW7       30.21F
RYAN FIELD     SUNNY     63  39  42 CALM      30.23F
NOGALES        SUNNY     63  33  32 SW3       30.21F
SIERRA VISTA   SUNNY     58  35  42 VRB6      30.24F
DOUGLAS        SUNNY     59  35  40 S5        30.24F
SAFFORD        SUNNY     58  33  39 S8        30.24F
$$

AZZ020-021-025-026-031-082000-
SOUTHWEST ARIZONA

CITY           SKY/WX    TMP DP  RH WIND       PRES   REMARKS
YUMA           SUNNY     65  13  13 N7        30.24F
$$

CAZ031-033-041-043-047-048-061-082000-
SOUTHERN CALIFORNIA

CITY           SKY/WX    TMP DP  RH WIND       PRES   REMARKS
DOWNTOWN L.A.  SUNNY     63  43  48 CALM      30.24F
L.A. AIRPORT   PTSUNNY   64  43  46 CALM      30.25F
SAN DIEGO      SUNNY     64  45  49 NW7       30.26F
BURBANK        SUNNY     62  35  36 VRB5      30.24F
ONTARIO        MOSUNNY   60  41  49 S3        30.24F
RIVERSIDE      MOSUNNY   61  45  55 CALM      30.25F
PALM SPRINGS   MOSUNNY   63  24  22 VRB5      30.26F
EL CENTRO NAS  MOSUNNY   63  19  18 CALM      30.26F
IMPERIAL       SUNNY     63  25  23 CALM      30.24F
BLYTHE         SUNNY     58  13  17 CALM      30.26F
NEEDLES        SUNNY     55  13  18 VRB3      30.29F
$$

NVZ020-UTZ003-082000-
SOUTHERN NEVADA-UTAH

CITY           SKY/WX    TMP DP  RH WIND       PRES   REMARKS
LAS VEGAS      MOSUNNY   50   5  16 CALM      30.28F
SALT LAKE CITY CLOUDY    30   9  41 S9        30.22F WCI  22
$$

NMZ009-TXZ055-082000-
NEW MEXICO-WEST TEXAS

CITY           SKY/WX    TMP DP  RH WIND       PRES   REMARKS
ALBUQUERQUE    MOSUNNY   33  14  45 VRB3      30.38F
EL PASO        PTSUNNY   39  23  52 E12       30.39F WCI  32
$$


........................KEY........................
SKY/WX - SKY CONDITION/WEATHER
TMP    - TEMPERATURE IN FAHRENHEIT
DP     - DEW POINT IN FAHRENHEIT
RH     - RELATIVE HUMIDITY IN PERCENT
WIND   - DIRECTION AND SPEED IN MILES PER HOUR (MPH)
VRB    - VARIABLE WIND DIRECTION
PRES   - MEAN SEA LEVEL PRESSURE IN INCHES OF MERCURY
         F - FALLING PRESSURE   R - RISING PRESSURE
         S - STEADY PRESSURE
VSB    - VISIBILITY IN MILES
HX     - HEAT INDEX IN FAHRENHEIT
WCI    - WIND CHILL INDEX IN FAHRENHEIT
TC     - TEMPERATURE IN CELSIUS WHICH IS ALSO KNOWN AS
         TEMPERATURE IN CENTIGRADE
AFB    - AIR FORCE BASE
         LUKE AFB IS LUKE AIR FORCE BASE
         DAVIS-MONTHAN IS DAVIS-MONTHAN AIR FORCE BASE
NAS    - NAVAL AIR STATION
         EL CENTRO NAS IS EL CENTRO NAVAL AIR STATION
N/A    - NOT AVAILABLE





USA.gov is the U.S. government's official web portal to all federal, state and local government web resources and services.